Tracking 29892 objects as of 21-Nov-2024
HD Live streaming from Space Station
objects crossing your sky now

FENGYUN 1C DEB

Track FENGYUN 1C DEB now!
10-day predictions


NORAD ID: 29892
Int'l Code: 1999-025GN
Perigee: 670.7 km
Apogee: 984.4 km
Inclination: 99.2 °
Period: 101.3 minutes
Semi major axis: 7198 km
RCS: 0.0391 m2 (small)
Launch date: May 10, 1999
Source: People's Republic of China (PRC)
Launch site: Taiyaun Space Center, China (TSC)

Note: This is SATELLITE DEBRIS
Your satellite tracking list
Your tracking list is empty




NASA's NSSDC Master Catalog

Two Line Element Set (TLE):
1 29892U 99025GN  24325.84118456  .00012417  00000-0  44729-2 0  9991
2 29892  99.1743  87.7464 0217913 330.3979 183.4567 14.21461826911288
Source of the keplerian elements: AFSPC